Tracking 19145 objects as of 25-Apr-2018
HD Live streaming from Space Station
objects crossing your sky now

FENGYUN 1C DEB

Track FENGYUN 1C DEB now!
10-day predictions


NORAD ID: 31227
Int'l Code: 1999-025BLH
Perigee: 729.4 km
Apogee: 924.2 km
Inclination: 98.1 °
Period: 101.3 minutes
Semi major axis: 7197 km
RCS: 0.003 m2 (small)
Launch date: May 10, 1999
Source: People's Republic of China (PRC)
Launch site: Taiyaun Space Center, China (TSC)

Note: This is SATELLITE DEBRIS
aabbcc
Your satellite tracking list
Your tracking list is empty




NASA's NSSDC Master Catalog

Two Line Element Set (TLE):
1 31227U 99025BLH 18113.86903606  .00001569  00000-0  66646-3 0  9994
2 31227  98.1230 133.9260 0135311 110.4356 251.1412 14.21690163569849
Source of the keplerian elements: AFSPC